Location: Alincthun
(50.7310°N, 1.8022°E)
Time: 08:14:19
(UTC+00:00)

Cosmos 1340 - Pass Details

Date: 17 February 2020
Orbit: 501 x 506 km, 81.2° (Epoch: 31 March)

Event Time Altitude Azimuth Distance (km) Brightness Sun altitude
Rises 05:42:23 0° 354° (N) 2,614 6.2 -13.2°
Reaches altitude 10° 05:44:40 10° 4° (N) 1,724 5.4 -12.9°
Maximum altitude 05:48:08 33° 70° (ENE) 858 4.5 -12.3°
Drops below altitude 10° 05:51:34 10° 137° (SE) 1,709 6.1 -11.8°
Sets 05:53:49 0° 147° (SSE) 2,588 6.9 -11.4°
